Wind_Speed
44 43 43 42 41 40 38 36 35 33 31 30 29 27 26 25 24 24 23 22 23 23 23 24 23 25 27 29 29 28 28 27 25 24 23 22 21 20 19 18 17 16 14
44 45 44 44 43 41 40 38 36 35 33 31 29 28 26 26 25 24 24 21 21 21 22 22 21 22 24 27 31 32 31 31 30 28 26 25 24 23 22 21 20 19 17
42 44 44 44 44 44 42 40 38 36 33 31 30 29 28 26 26 25 25 24 22 22 21 21 21 21 21 23 27 30 31 32 33 32 31 29 27 25 25 24 23 22 20
39 42 45 45 46 45 43 40 38 36 33 32 31 30 29 28 28 27 26 25 24 23 23 22 22 22 22 23 24 27 29 31 33 34 35 33 31 29 28 27 26 24 23
35 39 41 43 45 44 42 40 39 37 35 34 32 31 30 29 29 29 27 26 25 24 23 22 23 23 23 24 24 25 27 28 29 33 36 37 35 33 31 30 29 27 26
29 33 37 39 42 43 42 40 40 38 37 35 33 32 31 31 30 29 28 27 25 23 22 22 21 22 23 23 24 25 26 27 27 29 32 37 37 36 35 33 32 30 28
27 27 32 36 40 42 41 40 40 39 37 36 34 33 32 32 31 30 29 27 26 24 22 20 19 19 20 21 22 23 24 25 26 27 29 33 37 37 37 36 35 34 32
26 24 28 34 39 40 41 41 39 38 37 36 34 33 32 31 30 30 29 27 26 23 21 19 17 16 17 18 19 21 22 23 24 26 28 30 34 36 37 37 37 36 35
27 26 26 29 33 36 38 40 39 37 36 35 34 32 31 31 30 29 29 28 26 23 21 19 17 16 16 16 17 18 19 20 22 24 26 27 29 33 33 35 38 39 38
31 29 28 28 28 30 33 35 36 35 35 35 34 33 32 31 30 30 29 28 27 25 22 20 19 17 16 16 16 16 17 18 19 21 23 25 27 29 31 33 35 39 41
35 34 33 32 31 31 32 34 34 34 35 35 35 34 33 32 32 32 31 30 28 27 24 23 20 18 17 16 16 15 15 16 17 19 21 23 25 27 29 31 33 34 38
38 38 38 37 36 36 36 37 37 37 36 37 37 37 36 35 35 34 34 32 31 29 27 25 23 21 19 18 16 14 14 15 16 18 20 22 24 26 28 29 31 32 34
41 41 42 42 42 42 42 42 41 41 40 40 40 40 39 38 38 37 36 35 34 32 30 28 26 23 21 19 18 17 15 15 16 17 19 21 23 25 27 29 29 31 33
44 45 46 47 47 48 48 48 48 46 45 44 43 42 42 42 41 41 39 38 37 35 34 31 28 26 23 21 20 19 18 17 17 18 19 21 23 25 27 29 30 30 31
46 48 49 51 53 54 55 55 55 53 52 49 48 47 46 45 45 44 43 41 40 39 37 35 32 29 26 24 22 21 20 19 19 20 20 21 23 25 27 28 29 30 31
50 51 52 54 56 58 59 61 61 61 60 57 54 52 51 49 49 48 46 45 44 42 40 38 36 32 30 27 25 23 22 21 21 21 22 22 23 24 26 28 29 29 29
55 56 57 58 58 60 62 64 66 67 67 65 62 58 56 55 53 51 50 48 47 45 43 41 39 36 33 30 27 25 23 23 23 23 23 23 23 24 26 27 28 29 29
58 59 60 61 63 63 64 66 68 70 71 71 70 66 62 59 57 55 53 52 50 49 46 44 42 39 36 33 30 27 25 24 24 24 24 24 24 24 26 27 27 28 28
59 59 60 62 64 65 67 68 70 72 73 74 75 74 70 65 61 59 58 55 53 52 50 47 44 41 38 35 32 29 27 26 25 25 25 25 24 24 25 26 26 26 26
59 58 59 61 63 64 66 67 70 73 75 76 76 77 77 73 67 62 60 59 57 54 52 50 47 44 41 38 34 32 29 27 26 26 25 25 25 25 26 26 25 25 25
57 57 58 59 61 63 64 65 67 70 73 76 77 78 79 79 74 69 62 60 60 58 55 53 50 47 43 40 37 34 31 29 28 26 25 25 25 25 26 26 25 24 24
52 51 52 53 56 59 61 62 64 66 68 71 74 76 78 80 79 76 69 63 59 58 57 55 52 49 46 43 39 36 33 30 29 28 27 26 26 25 25 26 25 25 24
46 45 45 46 49 52 54 57 60 61 63 64 67 71 75 78 79 78 77 69 62 57 57 56 55 52 48 45 42 38 35 32 30 29 28 27 26 26 26 26 26 25 24
39 37 36 37 40 44 48 50 53 55 56 57 59 62 68 73 76 77 77 75 69 61 56 56 54 52 50 48 44 41 37 33 31 29 28 27 26 26 25 26 26 26 25
33 30 29 30 33 36 41 44 44 46 48 49 52 54 58 64 71 75 75 74 72 69 61 56 54 53 51 49 46 42 38 35 32 30 28 27 26 26 25 25 25 25 25
29 25 22 23 25 29 34 38 39 39 42 43 45 46 50 54 61 68 71 71 72 71 67 61 56 52 51 49 47 43 39 36 33 30 29 27 27 26 25 24 24 24 24
Wind_Direction
282 275 269 264 262 261 259 257 258 258 257 256 256 255 253 251 250 251 255 255 253 252 254 254 253 247 241 236 234 232 228 225 224 224 224 224 224 225 225 225 225 225 222
279 271 265 261 259 259 257 255 255 256 254 254 253 252 250 249 249 252 251 251 250 249 251 250 248 246 245 241 238 235 233 230 227 225 225 225 226 227 228 228 229 230 230
276 267 261 257 256 255 254 253 253 252 250 250 250 249 248 248 248 250 250 250 250 251 251 250 249 248 247 245 241 238 238 237 233 230 227 226 227 228 229 230 231 233 234
274 263 258 255 253 254 253 251 251 249 248 248 247 247 246 246 247 248 249 250 252 253 252 250 251 250 249 247 245 242 242 241 238 235 231 227 227 228 230 231 233 234 236
274 263 257 252 251 251 251 250 250 248 246 246 245 244 243 243 244 246 247 248 250 251 251 250 251 252 251 249 248 246 244 244 243 239 234 230 228 228 230 232 233 234 235
280 264 254 251 250 248 248 248 248 245 244 244 243 243 243 242 244 245 246 247 249 250 250 250 250 251 251 251 249 248 247 246 246 244 238 233 231 230 230 232 233 234 235
285 272 256 250 249 246 244 245 244 242 241 241 242 242 242 243 243 244 244 244 245 246 246 246 247 249 250 250 250 248 247 247 246 245 242 237 235 234 232 232 234 234 235
289 281 261 252 248 244 243 243 241 240 239 239 240 240 241 241 240 240 240 241 241 240 240 241 243 245 248 250 251 251 249 247 245 244 244 242 239 238 237 236 235 235 235
286 279 273 260 251 246 243 241 238 237 238 239 239 239 239 239 237 236 236 237 237 235 235 235 237 242 247 250 251 252 252 250 248 246 245 244 243 241 241 239 237 237 236
278 274 267 263 258 252 247 242 238 237 237 238 238 239 238 238 237 235 233 233 233 231 232 233 235 239 245 249 251 253 254 254 253 251 250 247 246 244 242 240 239 240 240
273 267 262 259 257 254 251 246 240 238 237 237 237 237 237 236 235 234 232 231 230 230 231 234 235 238 242 245 249 254 258 258 258 256 255 252 250 249 246 243 242 241 241
271 266 261 257 253 251 249 247 243 240 237 236 236 236 235 234 233 232 231 230 229 229 230 233 235 237 240 243 247 253 259 263 264 263 260 256 253 252 250 248 246 244 242
270 266 262 258 254 251 249 248 245 242 238 236 235 235 234 233 232 231 230 230 229 229 230 232 234 236 239 242 246 252 258 265 269 269 266 262 257 254 252 250 249 246 245
272 267 263 259 255 252 249 248 247 244 241 238 236 235 234 232 231 230 230 230 230 230 230 231 232 234 237 241 246 251 257 263 268 271 273 269 263 257 253 251 250 249 247
273 269 264 260 256 253 250 247 245 244 243 240 239 236 234 233 232 231 230 230 231 231 230 230 231 233 236 240 244 250 256 261 266 269 272 271 267 261 255 253 251 251 250
275 271 266 262 257 253 250 247 245 242 241 241 239 237 235 234 233 232 231 231 231 232 231 229 230 232 234 238 243 249 255 260 265 268 270 271 268 263 258 254 253 251 251
275 271 267 262 258 253 249 247 245 242 241 240 238 237 236 235 233 232 232 231 231 232 232 231 230 230 232 235 241 247 254 259 263 266 270 271 269 264 259 255 254 253 253
278 273 268 263 258 253 249 246 243 241 240 239 238 236 234 234 233 232 231 231 231 231 232 233 232 231 232 234 238 244 250 257 261 264 268 271 269 265 259 256 254 253 253
279 273 267 262 258 253 249 245 243 241 239 238 238 236 235 234 233 232 231 230 231 231 231 233 233 232 232 233 236 240 247 253 259 262 266 270 270 266 259 254 253 252 252
280 274 267 261 256 252 249 246 243 240 238 237 236 235 235 234 233 232 230 228 228 229 229 231 232 232 232 233 235 238 244 250 255 259 264 269 270 265 259 254 252 251 250
283 276 268 262 257 252 248 246 244 241 239 237 235 234 234 234 233 231 229 227 227 227 228 228 230 231 231 232 234 237 242 248 252 256 261 267 268 264 258 254 251 250 249
287 280 271 262 255 250 246 244 242 241 239 237 235 234 233 232 232 231 230 228 225 225 225 225 227 229 230 230 232 235 239 244 248 252 257 263 266 263 257 252 249 249 249
292 283 273 262 253 247 243 240 239 238 237 236 235 234 233 232 231 231 231 229 228 225 224 224 226 227 228 229 230 232 236 240 244 249 255 261 264 261 256 250 248 248 247
299 288 274 261 252 243 238 236 235 233 233 233 233 233 232 232 231 230 231 231 231 227 222 221 222 223 225 226 227 229 232 237 241 246 252 257 259 257 254 250 247 247 247
308 295 278 262 250 240 233 230 230 228 228 229 230 230 231 232 231 230 230 231 231 230 227 224 222 221 222 223 224 225 229 233 238 243 247 252 254 253 252 251 248 247 247
316 302 283 261 245 236 228 225 223 222 223 222 223 225 228 229 230 230 230 230 230 230 230 228 225 223 221 221 221 222 226 230 234 240 244 248 249 249 248 248 248 246 246
Height
5842 5842 5842 5843 5844 5846 5848 5849 5850 5851 5852 5853 5854 5856 5857 5858 5860 5861 5862 5863 5863 5864 5865 5866 5866 5867 5869 5871 5873 5875 5878 5880 5883 5885 5887 5890 5892 5895 5897 5900 5901 5903 5905
5831 5831 5832 5834 5835 5837 5839 5841 5842 5844 5845 5846 5848 5849 5851 5852 5854 5855 5857 5857 5858 5859 5860 5861 5862 5863 5864 5866 5868 5870 5872 5875 5878 5880 5883 5885 5888 5891 5894 5896 5899 5901 5902
5819 5819 5821 5823 5826 5827 5830 5832 5834 5836 5838 5839 5841 5843 5844 5846 5848 5849 5851 5852 5853 5854 5856 5857 5858 5858 5860 5861 5863 5865 5867 5870 5872 5875 5878 5881 5883 5886 5889 5892 5895 5897 5900
5808 5808 5810 5813 5816 5818 5821 5824 5826 5828 5830 5832 5834 5836 5838 5840 5841 5843 5845 5846 5848 5849 5851 5852 5853 5854 5855 5856 5858 5859 5862 5864 5867 5869 5872 5875 5878 5881 5884 5887 5890 5893 5896
5799 5799 5800 5803 5806 5810 5813 5816 5819 5821 5823 5825 5827 5829 5831 5833 5835 5837 5839 5840 5842 5843 5845 5847 5848 5849 5850 5851 5853 5854 5856 5858 5860 5862 5865 5869 5872 5876 5879 5882 5885 5888 5891
5792 5791 5792 5795 5798 5801 5805 5808 5810 5813 5815 5818 5820 5822 5824 5826 5828 5831 5832 5834 5836 5838 5839 5841 5843 5844 5845 5847 5848 5849 5851 5852 5854 5856 5858 5862 5865 5869 5872 5876 5879 5883 5886
5787 5785 5786 5788 5790 5793 5796 5799 5802 5804 5807 5810 5812 5815 5817 5819 5822 5824 5826 5828 5830 5832 5834 5836 5837 5839 5840 5841 5843 5844 5845 5847 5849 5850 5852 5855 5858 5862 5865 5869 5873 5877 5880
5782 5780 5781 5781 5782 5784 5787 5790 5793 5796 5798 5801 5804 5807 5810 5813 5815 5817 5820 5822 5825 5827 5829 5831 5833 5834 5836 5837 5838 5839 5840 5842 5843 5845 5847 5849 5852 5855 5858 5862 5865 5869 5873
5777 5776 5776 5776 5776 5777 5779 5781 5784 5787 5790 5793 5796 5800 5803 5806 5808 5811 5813 5816 5819 5821 5823 5826 5828 5829 5831 5833 5834 5835 5836 5837 5839 5841 5842 5844 5846 5849 5852 5855 5858 5862 5866
5770 5769 5769 5769 5769 5770 5771 5772 5775 5778 5781 5784 5788 5792 5795 5798 5802 5804 5807 5810 5813 5815 5818 5820 5823 5825 5827 5828 5830 5831 5832 5833 5835 5836 5838 5839 5841 5843 5846 5848 5851 5854 5858
5761 5761 5761 5761 5761 5762 5763 5764 5766 5769 5772 5775 5779 5783 5787 5790 5794 5797 5801 5804 5807 5810 5812 5815 5818 5820 5823 5824 5826 5827 5828 5829 5830 5832 5833 5835 5836 5838 5840 5842 5845 5847 5850
5750 5750 5750 5750 5751 5752 5753 5755 5756 5759 5763 5766 5770 5774 5778 5782 5786 5790 5794 5797 5800 5804 5807 5809 5812 5815 5818 5820 5822 5823 5825 5826 5826 5827 5828 5830 5831 5833 5834 5836 5838 5840 5843
5738 5738 5738 5739 5740 5741 5743 5745 5746 5749 5752 5756 5760 5764 5768 5773 5777 5781 5786 5790 5793 5797 5800 5803 5806 5809 5812 5815 5817 5818 5820 5821 5822 5823 5824 5825 5826 5827 5829 5830 5832 5834 5836
5725 5725 5725 5725 5727 5728 5730 5733 5735 5738 5741 5745 5749 5753 5758 5762 5767 5772 5777 5782 5786 5789 5793 5796 5800 5803 5806 5809 5811 5813 5815 5817 5818 5819 5819 5820 5820 5821 5823 5824 5826 5828 5830
5711 5710 5710 5710 5712 5713 5716 5719 5722 5725 5729 5733 5738 5742 5746 5751 5757 5762 5767 5772 5777 5781 5786 5789 5793 5796 5800 5803 5805 5808 5810 5811 5813 5814 5815 5815 5815 5816 5817 5818 5820 5821 5823
5695 5693 5692 5693 5694 5696 5699 5702 5705 5709 5714 5719 5724 5729 5734 5739 5745 5751 5756 5762 5767 5772 5777 5782 5786 5789 5793 5796 5799 5802 5804 5806 5807 5809 5810 5810 5811 5811 5811 5812 5813 5815 5817
5676 5674 5672 5672 5673 5675 5678 5682 5686 5691 5697 5702 5708 5715 5721 5727 5732 5738 5745 5751 5756 5762 5767 5773 5777 5781 5785 5789 5792 5795 5798 5800 5802 5803 5805 5805 5805 5805 5806 5806 5807 5808 5810
5653 5650 5649 5649 5650 5652 5656 5660 5665 5670 5677 5684 5690 5698 5705 5711 5718 5725 5731 5738 5745 5751 5757 5762 5768 5773 5778 5782 5785 5789 5791 5794 5796 5797 5799 5799 5799 5799 5799 5800 5801 5802 5803
5628 5625 5623 5623 5625 5627 5631 5636 5642 5648 5655 5663 5671 5679 5687 5694 5702 5709 5717 5724 5732 5739 5746 5752 5758 5764 5769 5774 5778 5781 5784 5787 5789 5791 5793 5793 5793 5793 5794 5794 5795 5796 5798
5602 5599 5598 5598 5599 5602 5606 5611 5618 5625 5633 5641 5650 5659 5668 5677 5686 5693 5700 5709 5717 5725 5733 5741 5748 5754 5760 5765 5770 5774 5777 5780 5783 5785 5786 5787 5787 5787 5788 5789 5790 5791 5792
5576 5572 5571 5571 5573 5577 5582 5588 5594 5601 5610 5619 5629 5638 5648 5658 5669 5677 5685 5693 5702 5711 5720 5728 5736 5744 5751 5756 5761 5766 5770 5773 5776 5778 5780 5781 5781 5781 5782 5783 5784 5785 5787
5551 5546 5544 5545 5548 5553 5559 5566 5572 5580 5589 5599 5608 5618 5628 5638 5650 5661 5670 5679 5687 5696 5706 5715 5724 5732 5741 5747 5752 5757 5762 5766 5769 5772 5773 5775 5775 5776 5776 5777 5778 5780 5782
5530 5525 5522 5523 5526 5531 5537 5545 5552 5561 5570 5580 5590 5599 5609 5620 5631 5642 5654 5664 5673 5683 5693 5702 5711 5721 5729 5737 5743 5748 5753 5758 5762 5764 5767 5768 5769 5770 5770 5771 5773 5774 5776
5513 5507 5504 5504 5507 5513 5519 5527 5535 5545 5555 5564 5574 5583 5592 5603 5614 5625 5636 5648 5659 5670 5680 5690 5700 5709 5717 5725 5732 5739 5745 5750 5754 5757 5760 5762 5763 5764 5765 5766 5767 5769 5771
5501 5495 5492 5491 5493 5498 5505 5513 5522 5532 5542 5551 5560 5569 5578 5587 5597 5610 5622 5635 5647 5657 5667 5677 5687 5696 5705 5714 5722 5730 5736 5741 5745 5750 5753 5755 5757 5758 5758 5759 5761 5763 5765
5492 5486 5483 5483 5485 5489 5495 5503 5512 5522 5532 5541 5551 5559 5567 5575 5583 5594 5607 5619 5631 5643 5655 5666 5675 5685 5694 5703 5712 5720 5727 5733 5738 5742 5746 5748 5750 5752 5752 5754 5755 5757 5759